DW4719 Vilanova I la Geltru ES current weather conditions

sailwx.info

Wind from 232 at 0 knots

Air temperature 22.8° C
Dewpoint 17.2° C

Last reported at 2014-Oct-20 10:49 UTC.
Time now 2014-Oct-20 11:33 UTC

Location: N 41°13' E 001°44'.
View on Google Maps.

See reports from other nearby stations

  
Tides and Currents Weather Stations Pressure Air Temp Water Temp Dewpoint Dewpoint Depression Visibility Wind Speed Wind Dir Waves Ship Positions
date/time (UTC)wind fromknots sea level pressurealtimeterstation pressurevisibilityair tempwater tempwave heightnotes
2014-Oct-20 10:49 232 0 22.8
2014-Oct-20 10:45 226 0 22.8
2014-Oct-20 10:40 230 0 22.8
2014-Oct-20 10:35 216 0 22.8
2014-Oct-20 10:30 209 0 22.2
2014-Oct-20 10:25 222 0 22.2
2014-Oct-20 10:21 230 1 22.2
2014-Oct-20 10:15 253 0 22.2
2014-Oct-20 10:10 220 0 22.2
2014-Oct-20 10:05 246 22.2
2014-Oct-20 10:00 232 22.2
2014-Oct-20 09:55 227 22.2
2014-Oct-20 09:51 222 21.7
2014-Oct-20 09:45 220 21.7
2014-Oct-20 09:40 220 21.7
2014-Oct-20 09:35 223 21.7
2014-Oct-20 09:30 206 21.7
2014-Oct-20 09:25 205 21.7
2014-Oct-20 09:21 205 21.1
2014-Oct-20 09:15 169 21.1
2014-Oct-20 09:10 168 21.1
2014-Oct-20 09:04 124 21.1
2014-Oct-20 09:00 124 21.1
2014-Oct-20 08:55 124 20.6
2014-Oct-20 08:50 121 20.6
2014-Oct-20 08:45 090 20.6
2014-Oct-20 08:40 090 20.6
2014-Oct-20 08:35 089 20.0
2014-Oct-20 08:30 089 20.0
2014-Oct-20 08:24 088 19.4
2014-Oct-20 08:20 089 19.4
2014-Oct-20 08:15 089 18.9
2014-Oct-20 08:10 089 18.3
2014-Oct-20 08:04 089 18.3
2014-Oct-20 08:00 089 17.8
2014-Oct-20 07:54 089 17.8
2014-Oct-20 07:50 088 17.2
2014-Oct-20 07:45 088 17.2
2014-Oct-20 07:40 088 16.7
2014-Oct-20 07:35 088 16.7
2014-Oct-20 07:30 088 16.7
2014-Oct-20 07:24 088 16.1
2014-Oct-20 07:20 088 16.1
2014-Oct-20 07:15 089 16.1
2014-Oct-20 07:10 088 16.1
2014-Oct-20 07:04 089 15.6
2014-Oct-20 07:00 089 15.6
2014-Oct-20 06:54 089 15.6
2014-Oct-20 06:51 089 15.6
2014-Oct-20 06:45 089 15.6
2014-Oct-20 06:40 089 15.6
2014-Oct-20 06:35 093 15.6
2014-Oct-20 06:30 093 15.6
2014-Oct-20 06:26 093 15.6
2014-Oct-20 06:20 095 15.6
2014-Oct-20 06:15 095 15.6
2014-Oct-20 06:10 095 15.6
2014-Oct-20 06:04 095 15.6
2014-Oct-20 06:00 095 15.6
2014-Oct-20 05:56 095 15.6
2014-Oct-20 05:50 095 15.6
2014-Oct-20 05:45 095 15.6
2014-Oct-20 05:40 095 15.6
2014-Oct-20 05:35 095 15.6
2014-Oct-20 05:30 095 15.6
2014-Oct-20 05:26 095 15.6
2014-Oct-20 05:20 095 15.6
2014-Oct-20 05:15 095 15.6
2014-Oct-20 05:10 095 15.6
2014-Oct-20 05:04 095 16.1
2014-Oct-20 05:00 095 16.1
2014-Oct-20 04:56 095 16.1
2014-Oct-20 04:50 095 16.1
2014-Oct-20 04:45 095 16.1
2014-Oct-20 04:40 095 16.1
2014-Oct-20 04:35 095 16.1
2014-Oct-20 04:30 095 16.1
2014-Oct-20 04:25 095 16.1
2014-Oct-20 04:20 095 16.1
2014-Oct-20 04:15 095 16.1
2014-Oct-20 04:10 095 16.1
2014-Oct-20 04:05 095 16.1
2014-Oct-20 03:59 095 16.1
2014-Oct-20 03:55 095 16.1
2014-Oct-20 03:50 095 16.1
2014-Oct-20 03:45 095 16.1
2014-Oct-20 03:40 095 16.1
2014-Oct-20 03:35 095 16.1
2014-Oct-20 03:29 095 16.1
2014-Oct-20 03:25 095 16.1
2014-Oct-20 03:20 096 16.1
2014-Oct-20 03:15 095 16.1
2014-Oct-20 03:10 095 16.7
2014-Oct-20 03:05 095 16.7
2014-Oct-20 02:59 095 16.7
2014-Oct-20 02:55 095 16.7
2014-Oct-20 02:50 095 16.7
2014-Oct-20 02:45 095 16.7
2014-Oct-20 02:40 095 16.7
2014-Oct-20 02:35 095 16.7
2014-Oct-20 02:29 095 16.7
2014-Oct-20 02:25 095 16.7
2014-Oct-20 02:20 095 16.7
2014-Oct-20 02:15 095 16.7
2014-Oct-20 02:10 095 16.7
2014-Oct-20 02:05 095 16.7
2014-Oct-20 01:59 095 16.7
2014-Oct-20 01:55 095 16.7
2014-Oct-20 01:50 095 16.7
2014-Oct-20 01:45 095 16.7
2014-Oct-20 01:40 095 16.7
2014-Oct-20 01:35 095 16.7
2014-Oct-20 01:31 095 16.7
2014-Oct-20 01:25 095 16.7
2014-Oct-20 01:20 095 16.7
2014-Oct-20 01:15 095 17.2
2014-Oct-20 01:10 095 17.2
2014-Oct-20 01:05 095 17.2
2014-Oct-20 01:01 095 17.2
2014-Oct-20 00:55 095 17.2
2014-Oct-20 00:50 095 17.2
2014-Oct-20 00:45 095 17.2
2014-Oct-20 00:40 095 17.2
2014-Oct-20 00:35 095 17.2
2014-Oct-20 00:31 095 17.2
2014-Oct-20 00:25 095 17.2
2014-Oct-20 00:20 095 17.2
2014-Oct-20 00:15 095 17.2
2014-Oct-20 00:10 095 17.8
2014-Oct-20 00:05 095 17.8
2014-Oct-20 00:01 095 17.8
2014-Oct-19 23:55 095 17.8
2014-Oct-19 23:50 095 17.8
2014-Oct-19 23:45 095 17.8
2014-Oct-19 23:40 095 17.8
2014-Oct-19 23:35 095 17.8
2014-Oct-19 23:30 095 17.8
2014-Oct-19 23:25 095 17.8
2014-Oct-19 23:20 095 17.8
2014-Oct-19 23:15 095 17.8
2014-Oct-19 23:10 095 17.8
2014-Oct-19 23:04 095 17.8
2014-Oct-19 23:00 095 17.8
2014-Oct-19 22:55 095 17.8
2014-Oct-19 22:50 095 18.3
2014-Oct-19 22:45 095 18.3
2014-Oct-19 22:40 095 18.3
2014-Oct-19 22:35 095 18.3
2014-Oct-19 22:30 095 18.3
2014-Oct-19 22:25 095 18.3
2014-Oct-19 22:20 095 18.3
2014-Oct-19 22:15 095 18.3
2014-Oct-19 22:10 095 18.9
2014-Oct-19 22:04 095 18.9
2014-Oct-19 22:00 095 18.9
2014-Oct-19 21:55 095 18.9
2014-Oct-19 21:50 095 18.9
2014-Oct-19 21:45 095 18.9
2014-Oct-19 21:40 095 18.9
2014-Oct-19 21:34 095 18.9
2014-Oct-19 21:30 095 18.9
2014-Oct-19 21:25 095 18.9
2014-Oct-19 21:20 095 18.9
2014-Oct-19 21:15 095 18.9
2014-Oct-19 21:10 095 19.4
2014-Oct-19 21:06 095 19.4
2014-Oct-19 21:00 095 19.4
2014-Oct-19 20:55 095 19.4
2014-Oct-19 20:50 095 19.4
2014-Oct-19 20:45 095 19.4
2014-Oct-19 20:40 095 19.4
2014-Oct-19 20:36 095 20.0
2014-Oct-19 20:30 095 20.0
2014-Oct-19 20:25 095 20.0
2014-Oct-19 20:20 095 20.0
2014-Oct-19 20:15 095 20.0
2014-Oct-19 20:10 095 20.0
2014-Oct-19 20:06 095 20.0
2014-Oct-19 20:00 095 20.0
2014-Oct-19 19:55 095 20.0
2014-Oct-19 19:50 095 20.0
2014-Oct-19 19:45 095 20.0
2014-Oct-19 19:40 095 20.0
2014-Oct-19 19:35 096 20.0
2014-Oct-19 19:30 096 20.6
2014-Oct-19 19:25 095 20.6
2014-Oct-19 19:20 096 20.6
2014-Oct-19 19:15 096 20.6
2014-Oct-19 19:10 096 21.1
2014-Oct-19 19:05 096 21.1
2014-Oct-19 19:00 096 21.1
2014-Oct-19 18:55 096 21.1
2014-Oct-19 18:50 095 21.1
2014-Oct-19 18:45 095 21.1
2014-Oct-19 18:39 102 21.1
2014-Oct-19 18:35 102 21.1
2014-Oct-19 18:30 102 21.1
2014-Oct-19 18:25 102 21.1
2014-Oct-19 18:20 103 21.1
2014-Oct-19 18:15 102 21.1
2014-Oct-19 18:09 102 21.1
2014-Oct-19 18:05 103 21.1
2014-Oct-19 18:00 110 21.1
2014-Oct-19 17:55 113 21.1
2014-Oct-19 17:50 109 21.1
2014-Oct-19 17:45 120 0 21.1
2014-Oct-19 17:36 114 1 21.1
2014-Oct-19 17:35 120 1 21.1
2014-Oct-19 17:30 099 0 21.7
2014-Oct-19 17:25 092 0 21.7
2014-Oct-19 17:20 080 1 21.7
2014-Oct-19 17:15 092 1 21.7
2014-Oct-19 17:09 110 0 21.7
2014-Oct-19 17:05 093 1 21.7
2014-Oct-19 17:00 104 0 21.7
2014-Oct-19 16:55 124 0 21.7
2014-Oct-19 16:50 079 1 21.7
2014-Oct-19 16:45 086 3 22.2
2014-Oct-19 16:41 072 4 22.2
2014-Oct-19 16:35 092 4 22.2
2014-Oct-19 16:30 106 3 22.2
2014-Oct-19 16:25 096 3 22.2
2014-Oct-19 16:20 102 3 22.2
2014-Oct-19 16:15 140 3 22.2
2014-Oct-19 16:11 117 4 22.2
2014-Oct-19 16:05 148 3 22.2
2014-Oct-19 16:00 116 3 22.2
2014-Oct-19 15:55 102 3 22.2
2014-Oct-19 15:50 093 3 22.2
2014-Oct-19 15:45 126 4 22.2
2014-Oct-19 15:40 136 4 22.2
2014-Oct-19 15:35 080 3 22.2
2014-Oct-19 15:30 102 3 22.2
2014-Oct-19 15:25 119 4 22.8
2014-Oct-19 15:20 095 4 22.8
2014-Oct-19 15:14 119 5 22.8
2014-Oct-19 15:10 121 4 22.8
2014-Oct-19 15:04 096 3 22.8
2014-Oct-19 15:00 119 4 22.8
2014-Oct-19 14:55 126 4 22.8
2014-Oct-19 14:50 127 3 22.8
2014-Oct-19 14:44 082 3 23.3
2014-Oct-19 14:40 112 3 23.3
2014-Oct-19 14:35 109 3 23.3
2014-Oct-19 14:30 100 2 23.3
2014-Oct-19 14:25 093 1 23.3
2014-Oct-19 14:20 112 1 23.3
2014-Oct-19 14:14 082 0 23.3
2014-Oct-19 14:10 117 1 23.3
2014-Oct-19 14:04 136 3 23.3
2014-Oct-19 14:00 131 3 23.3
2014-Oct-19 13:55 109 4 23.3
2014-Oct-19 13:50 080 4 23.3
2014-Oct-19 13:44 124 3 23.3
2014-Oct-19 13:41 120 3 23.3
2014-Oct-19 13:35 167 3 23.3
2014-Oct-19 13:30 107 3 23.3
2014-Oct-19 13:25 110 4 23.3
2014-Oct-19 13:20 089 4 23.3
2014-Oct-19 13:16 097 3 23.3
2014-Oct-19 13:10 133 3 23.3
2014-Oct-19 13:04 133 4 22.8
2014-Oct-19 13:00 093 5 22.8
2014-Oct-19 12:55 086 5 22.8
2014-Oct-19 12:50 095 5 22.8
2014-Oct-19 12:46 072 5 22.8
2014-Oct-19 12:40 086 4 23.3
2014-Oct-19 12:35 127 2 23.3
2014-Oct-19 12:30 106 3 23.3
2014-Oct-19 12:25 113 3 22.8
2014-Oct-19 12:20 097 2 22.8
2014-Oct-19 12:16 086 3 22.8
2014-Oct-19 12:10 090 4 22.8
2014-Oct-19 12:05 068 3 22.8
2014-Oct-19 12:00 095 4 22.8
2014-Oct-19 11:55 096 4 22.8
2014-Oct-19 11:50 113 3 22.8
2014-Oct-19 11:45 088 2 22.8
2014-Oct-19 11:40 119 2 22.8
2014-Oct-19 11:35 128 3 22.8
2014-Oct-19 11:30 121 3 22.8
2014-Oct-19 11:25 097 3 22.8
2014-Oct-19 11:19 120 3 22.8
2014-Oct-19 11:15 090 2 22.8
2014-Oct-19 11:10 113 1 23.3
2014-Oct-19 11:05 126 1 23.3
2014-Oct-19 11:00 089 3 22.8
2014-Oct-19 10:55 100 3 23.3
2014-Oct-19 10:49 102 2 23.3
2014-Oct-19 10:45 117 4 23.3
2014-Oct-19 10:40 064 3 23.3
2014-Oct-19 10:35 082 1 23.3
2014-Oct-19 10:30 073 1 23.3
2014-Oct-19 10:25 099 0 23.3
2014-Oct-19 10:19 116 1 22.8
2014-Oct-19 10:15 086 1 22.8
2014-Oct-19 10:10 090 1 22.8
2014-Oct-19 10:05 079 1 22.8
2014-Oct-19 10:00 079 0 22.8
2014-Oct-19 09:55 076 0 23.3
2014-Oct-19 09:49 106 0 22.8
2014-Oct-19 09:45 117 0 22.8
2014-Oct-19 09:40 095 1 22.8
2014-Oct-19 09:35 123 1 22.8
2014-Oct-19 09:30 128 1 23.3
2014-Oct-19 09:25 143 23.3
2014-Oct-19 09:19 097 23.3
2014-Oct-19 09:15 095 22.8
2014-Oct-19 09:10 141 22.8
2014-Oct-19 09:04 112 22.8
2014-Oct-19 09:00 112 22.8
2014-Oct-19 08:55 110 22.8
2014-Oct-19 08:51 109 22.2
2014-Oct-19 08:45 109 22.2
2014-Oct-19 08:40 112 22.2
2014-Oct-19 08:35 130 22.2
2014-Oct-19 08:30 126 22.2
2014-Oct-19 08:25 096 21.7
2014-Oct-19 08:21 066 21.1
2014-Oct-19 08:15 066 20.6
2014-Oct-19 08:10 051 20.0
2014-Oct-19 08:04 049 20.0
2014-Oct-19 08:00 051 19.4
2014-Oct-19 07:55 051 19.4
2014-Oct-19 07:51 051 18.9
2014-Oct-19 07:45 042 18.9
2014-Oct-19 07:40 042 18.3
2014-Oct-19 07:35 042 18.3
2014-Oct-19 07:30 041 17.8
2014-Oct-19 07:25 041 17.8
2014-Oct-19 07:20 041 17.8
2014-Oct-19 07:15 023 17.8
2014-Oct-19 07:10 360 17.8
2014-Oct-19 07:04 360 17.2
2014-Oct-19 07:00 360 17.2
2014-Oct-19 06:54 055 17.2
2014-Oct-19 06:50 051 17.2
2014-Oct-19 06:45 052 17.2
2014-Oct-19 06:40 051 16.7
2014-Oct-19 06:35 049 16.7
2014-Oct-19 06:30 048 16.7
2014-Oct-19 06:25 047 16.7
2014-Oct-19 06:20 044 16.7
2014-Oct-19 06:15 042 16.7
2014-Oct-19 06:10 042 16.7
2014-Oct-19 06:04 042 16.7
2014-Oct-19 06:00 042 16.7
2014-Oct-19 05:54 042 0 16.7
2014-Oct-19 05:50 047 16.7
2014-Oct-19 05:45 052 16.7
2014-Oct-19 05:40 052 16.7
2014-Oct-19 05:35 052 16.7
2014-Oct-19 05:30 052 16.7
2014-Oct-19 05:24 052 16.7
2014-Oct-19 05:20 052 16.7
2014-Oct-19 05:15 052 16.7
2014-Oct-19 05:10 054 16.7
2014-Oct-19 05:05 052 16.7
2014-Oct-19 05:00 052 16.7
2014-Oct-19 04:56 059 16.7
2014-Oct-19 04:51 055 16.7
2014-Oct-19 04:45 055 16.7
2014-Oct-19 04:40 055 16.7
2014-Oct-19 04:35 055 16.7
2014-Oct-19 04:30 056 16.7
2014-Oct-19 04:26 056 16.7
2014-Oct-19 04:20 054 16.7
2014-Oct-19 04:15 055 16.7
2014-Oct-19 04:10 054 16.7
2014-Oct-19 04:05 055 16.7
2014-Oct-19 04:00 058 16.7
2014-Oct-19 03:56 059 16.7
2014-Oct-19 03:50 058 16.7
2014-Oct-19 03:45 058 16.7
2014-Oct-19 03:40 058 16.7
2014-Oct-19 03:35 055 16.7
2014-Oct-19 03:30 052 16.7
2014-Oct-19 03:26 055 16.7
2014-Oct-19 03:20 049 16.7
2014-Oct-19 03:15 049 16.7
2014-Oct-19 03:10 049 0 16.7
2014-Oct-19 03:05 052 16.7
2014-Oct-19 03:00 051 16.7
2014-Oct-19 02:55 051 16.7
2014-Oct-19 02:50 051 16.7
2014-Oct-19 02:45 051 16.7
2014-Oct-19 02:40 051 16.7
2014-Oct-19 02:35 051 16.7
2014-Oct-19 02:29 052 16.7
2014-Oct-19 02:25 051 16.7
2014-Oct-19 02:20 048 16.7
2014-Oct-19 02:15 040 16.7
2014-Oct-19 02:10 056 16.7
2014-Oct-19 02:05 056 16.7
2014-Oct-19 02:00 056 16.7
2014-Oct-19 01:55 056 16.7
2014-Oct-19 01:50 056 16.7
2014-Oct-19 01:45 055 16.7
2014-Oct-19 01:40 056 16.7
2014-Oct-19 01:35 055 16.7
2014-Oct-19 01:29 049 16.7
2014-Oct-19 01:25 049 16.7
2014-Oct-19 01:20 052 16.7
2014-Oct-19 01:15 052 16.7
2014-Oct-19 01:10 056 16.7
2014-Oct-19 01:05 357 16.7
2014-Oct-19 00:59 353 16.7
2014-Oct-19 00:56 352 16.7
2014-Oct-19 00:50 353 16.7
2014-Oct-19 00:45 350 16.7
2014-Oct-19 00:40 360 16.7
2014-Oct-19 00:35 360 16.7
2014-Oct-19 00:29 360 16.7
2014-Oct-19 00:25 360 17.2
2014-Oct-19 00:20 360 17.2
2014-Oct-19 00:15 285 17.2
2014-Oct-19 00:10 285 17.2
2014-Oct-19 00:05 285 17.2
2014-Oct-19 00:01 285 17.2
2014-Oct-18 23:55 285 16.7
2014-Oct-18 23:50 285 16.7
2014-Oct-18 23:45 285 16.7
2014-Oct-18 23:40 285 17.2
2014-Oct-18 23:35 285 17.2
2014-Oct-18 23:31 285 17.2
2014-Oct-18 23:25 285 17.2
2014-Oct-18 23:20 285 17.2
2014-Oct-18 23:15 285 17.2
2014-Oct-18 23:08 285 17.2
2014-Oct-18 23:05 285 17.2
2014-Oct-18 23:01 285 17.2
2014-Oct-18 22:55 285 17.2
2014-Oct-18 22:50 285 17.2
2014-Oct-18 22:45 285 17.2
2014-Oct-18 22:40 285 17.2
2014-Oct-18 22:35 285 17.8
2014-Oct-18 22:30 285 17.8
2014-Oct-18 22:25 285 17.8
2014-Oct-18 22:20 285 17.8
2014-Oct-18 22:15 285 17.8
2014-Oct-18 22:10 285 17.8
2014-Oct-18 22:04 285 18.3
2014-Oct-18 22:00 285 18.3
2014-Oct-18 21:55 280 18.3
2014-Oct-18 21:50 278 18.3
2014-Oct-18 21:45 278 18.9
2014-Oct-18 21:40 278 18.9
2014-Oct-18 21:34 278 18.9
2014-Oct-18 21:30 278 18.3
2014-Oct-18 21:25 278 18.3
2014-Oct-18 21:20 278 18.3
2014-Oct-18 21:15 278 18.3
2014-Oct-18 21:10 278 18.9
2014-Oct-18 21:04 278 18.9
2014-Oct-18 21:01 278 18.9
2014-Oct-18 20:55 278 18.9
2014-Oct-18 20:50 278 18.9
2014-Oct-18 20:45 278 18.9
2014-Oct-18 20:40 278 18.9
2014-Oct-18 20:36 278 18.9
2014-Oct-18 20:30 278 18.9
2014-Oct-18 20:25 278 18.9
2014-Oct-18 20:20 278 18.9
2014-Oct-18 20:15 278 18.9
2014-Oct-18 20:10 278 18.9
2014-Oct-18 20:06 278 18.9
2014-Oct-18 20:00 278 18.9
2014-Oct-18 19:55 278 18.9
2014-Oct-18 19:50 278 19.4
2014-Oct-18 19:45 278 19.4
2014-Oct-18 19:40 193 19.4
2014-Oct-18 19:36 193 20.0
2014-Oct-18 19:30 193 20.0
2014-Oct-18 19:25 193 20.0
2014-Oct-18 19:20 193 20.0
2014-Oct-18 19:15 193 20.0
2014-Oct-18 19:09 193 20.0
2014-Oct-18 19:05 193 20.0
2014-Oct-18 19:00 193 20.0
2014-Oct-18 18:55 193 20.0
2014-Oct-18 18:50 193 20.0
2014-Oct-18 18:45 193 20.6
2014-Oct-18 18:40 193 20.6
2014-Oct-18 18:35 193 21.1
2014-Oct-18 18:30 193 21.1
2014-Oct-18 18:25 193 21.1
2014-Oct-18 18:20 193 21.1
2014-Oct-18 18:15 193 21.1
2014-Oct-18 18:09 193 21.1
2014-Oct-18 18:05 193 21.1
2014-Oct-18 18:00 193 21.1
2014-Oct-18 17:55 193 21.1
2014-Oct-18 17:50 193 21.7
2014-Oct-18 17:45 193 21.7
2014-Oct-18 17:39 193 21.7
2014-Oct-18 17:36 193 21.7
2014-Oct-18 17:30 193 21.7
2014-Oct-18 17:25 193 21.7
2014-Oct-18 17:20 193 21.7
2014-Oct-18 17:15 193 21.7
2014-Oct-18 17:09 193 21.7
2014-Oct-18 17:05 193 21.7
2014-Oct-18 17:00 193 22.2
2014-Oct-18 16:55 193 22.2
2014-Oct-18 16:50 192 22.2
2014-Oct-18 16:45 192 22.2
2014-Oct-18 16:41 192 22.2
2014-Oct-18 16:35 193 22.2
2014-Oct-18 16:30 193 22.8
2014-Oct-18 16:25 193 22.8
2014-Oct-18 16:20 212 23.3
2014-Oct-18 16:15 216 23.3
2014-Oct-18 16:11 200 23.3
2014-Oct-18 16:05 193 23.9
2014-Oct-18 16:00 193 24.4
2014-Oct-18 15:55 193 24.4
2014-Oct-18 15:50 195 24.4
2014-Oct-18 15:45 195 24.4
2014-Oct-18 15:41 195 23.9
2014-Oct-18 15:35 195 23.9
2014-Oct-18 15:30 195 23.9
2014-Oct-18 15:25 195 23.9
2014-Oct-18 15:20 195 23.9
2014-Oct-18 15:14 196 23.9
2014-Oct-18 15:10 184 23.9
2014-Oct-18 15:05 191 23.3
2014-Oct-18 15:00 226 0 23.9
2014-Oct-18 14:55 210 23.9
2014-Oct-18 14:50 240 24.4
2014-Oct-18 14:44 195 24.4
2014-Oct-18 14:40 217 24.4
2014-Oct-18 14:35 217 24.4
2014-Oct-18 14:30 217 23.9
2014-Oct-18 14:25 219 23.9
2014-Oct-18 14:20 219 23.9
2014-Oct-18 14:14 219 23.9
2014-Oct-18 14:10 220 23.9
2014-Oct-18 14:05 248 23.3
2014-Oct-18 14:00 195 23.9
2014-Oct-18 13:55 215 23.9
2014-Oct-18 13:50 186 23.9
2014-Oct-18 13:44 223 23.9
2014-Oct-18 13:40 224 23.9
2014-Oct-18 13:35 216 23.9
2014-Oct-18 13:30 219 23.9
2014-Oct-18 13:25 224 23.9
2014-Oct-18 13:20 196 23.9
2014-Oct-18 13:14 196 23.9
2014-Oct-18 13:11 195 23.9
2014-Oct-18 13:05 227 23.9
2014-Oct-18 13:00 182 23.9
2014-Oct-18 12:55 185 23.3
2014-Oct-18 12:50 182 23.3
2014-Oct-18 12:46 186 0 23.3
2014-Oct-18 12:40 185 23.3
2014-Oct-18 12:35 203 0 22.8
2014-Oct-18 12:30 205 22.8
2014-Oct-18 12:25 210 22.8
2014-Oct-18 12:20 191 0 22.8
2014-Oct-18 12:16 212 0 22.8
2014-Oct-18 12:10 208 0 22.8
2014-Oct-18 12:05 202 1 22.8
2014-Oct-18 12:00 212 0 22.8
2014-Oct-18 11:55 246 0 22.8
2014-Oct-18 11:50 226 0 23.3
2014-Oct-18 11:46 208 23.3
2014-Oct-18 11:40 189 0 23.3
2014-Oct-18 11:35 176 0 22.8
2014-Oct-18 11:30 192 0 22.8
2014-Oct-18 11:25 179 0 22.8
2014-Oct-18 11:20 230 22.8
2014-Oct-18 11:16 193 0 22.8
2014-Oct-18 11:10 203 0 22.8
2014-Oct-18 11:05 251 22.8
2014-Oct-18 11:00 213 0 22.8